Time,TemperatureF,DewpointF,PressureIn,WindDirection,WindDirectionDegrees,WindSpeedMPH,WindSpeedGustMPH,Humidity,HourlyPrecipIn,Conditions,Clouds,dailyrainin,SoftwareType,DateUTC
2015-02-01 00:00:00,8.5,-11.4,30.01,North,4,0.4,2.3,39,0.00,CLR,,0.00,WeatherDisplay:10.37,2015-02-01 05:00:00,
2015-02-01 00:05:00,8.3,-11.6,30.01,NW,312,5.2,6.9,39,0.00,CLR,,0.00,WeatherDisplay:10.37,2015-02-01 05:05:00,
2015-02-01 00:10:00,8.3,-11.6,30.01,NW,317,5.5,10.4,39,0.00,CLR,,0.00,WeatherDisplay:10.37,2015-02-01 05:10:00,
2015-02-01 00:15:00,8.5,-10.9,30.02,NNW,327,2.7,8.1,40,0.00,CLR,,0.00,WeatherDisplay:10.37,2015-02-01 05:15:00,
2015-02-01 00:25:00,8.3,-11.1,30.02,NNW,338,3.5,5.8,40,0.00,CLR,,0.00,WeatherDisplay:10.37,2015-02-01 05:25:00,
2015-02-01 00:30:00,8.1,-10.8,30.02,NNW,329,2.4,5.8,41,0.00,CLR,,0.00,WeatherDisplay:10.37,2015-02-01 05:30:00,
2015-02-01 00:35:00,8.0,-10.9,30.02,WNW,292,6.6,8.1,41,0.00,CLR,,0.00,WeatherDisplay:10.37,2015-02-01 05:35:00,
2015-02-01 00:40:00,8.0,-10.9,30.02,WNW,290,4.4,7.0,41,0.00,CLR,,0.00,WeatherDisplay:10.37,2015-02-01 05:40:00,
2015-02-01 00:45:00,8.0,-10.4,30.02,NNW,333,0.3,4.0,42,0.00,CLR,,0.00,WeatherDisplay:10.37,2015-02-01 05:45:00,
2015-02-01 00:50:00,7.8,-10.6,30.02,WNW,295,1.4,2.3,42,0.00,CLR,,0.00,WeatherDisplay:10.37,2015-02-01 05:50:00,
2015-02-01 00:55:00,7.6,-10.3,30.02,WNW,295,2.3,4.6,43,0.00,CLR,,0.00,WeatherDisplay:10.37,2015-02-01 05:55:00,
2015-02-01 01:05:00,7.4,-10.0,30.02,NW,319,2.6,4.6,44,0.00,CLR,,0.00,WeatherDisplay:10.37,2015-02-01 06:05:00,
2015-02-01 01:10:00,7.4,-10.0,30.02,WNW,295,4.0,8.1,44,0.00,CLR,,0.00,WeatherDisplay:10.37,2015-02-01 06:10:00,
2015-02-01 01:15:00,7.8,-9.2,30.02,North,354,1.5,3.5,45,0.00,CLR,,0.00,WeatherDisplay:10.37,2015-02-01 06:15:00,
2015-02-01 01:25:00,7.8,-9.2,30.02,WNW,283,4.8,8.0,45,0.00,CLR,,0.00,WeatherDisplay:10.37,2015-02-01 06:25:00,
2015-02-01 01:30:00,8.1,-8.0,30.02,NW,305,10.1,17.3,47,0.00,CLR,,0.00,WeatherDisplay:10.37,2015-02-01 06:30:00,
2015-02-01 01:35:00,8.3,-7.8,30.02,WNW,300,3.6,8.0,47,0.00,CLR,,0.00,WeatherDisplay:10.37,2015-02-01 06:35:00,
2015-02-01 01:40:00,8.3,-7.8,30.02,NW,321,4.4,6.9,47,0.00,CLR,,0.00,WeatherDisplay:10.37,2015-02-01 06:40:00,
2015-02-01 01:50:00,8.1,-7.6,30.02,West,272,5.1,6.9,48,0.00,CLR,,0.00,WeatherDisplay:10.37,2015-02-01 06:50:00,
2015-02-01 01:55:00,8.1,-7.6,30.02,NW,321,3.4,7.0,48,0.00,CLR,,0.00,WeatherDisplay:10.37,2015-02-01 06:55:00,
2015-02-01 02:00:00,8.1,-7.2,30.02,WNW,290,3.4,5.8,49,0.00,CLR,,0.00,WeatherDisplay:10.37,2015-02-01 07:00:00,
2015-02-01 02:05:00,8.1,-7.2,30.02,WNW,303,0.7,3.5,49,0.00,CLR,,0.00,WeatherDisplay:10.37,2015-02-01 07:05:00,
2015-02-01 02:10:00,8.1,-6.7,30.02,North,0,1.5,2.3,50,0.00,CLR,,0.00,WeatherDisplay:10.37,2015-02-01 07:10:00,
2015-02-01 02:15:00,8.3,-6.5,30.03,NW,309,3.2,6.0,50,0.00,CLR,,0.00,WeatherDisplay:10.37,2015-02-01 07:15:00,
2015-02-01 02:20:00,8.3,-6.5,30.03,North,358,0.2,3.5,50,0.00,CLR,,0.00,WeatherDisplay:10.37,2015-02-01 07:20:00,
2015-02-01 02:25:00,8.5,-6.4,30.03,North,2,1.9,2.3,50,0.00,CLR,,0.00,WeatherDisplay:10.37,2015-02-01 07:25:00,
2015-02-01 02:30:00,8.5,-6.4,30.03,North,4,0.0,0.0,50,0.00,CLR,,0.00,WeatherDisplay:10.37,2015-02-01 07:30:00,
2015-02-01 02:35:00,8.3,-6.5,30.03,North,4,0.0,0.0,50,0.00,CLR,,0.00,WeatherDisplay:10.37,2015-02-01 07:35:00,
2015-02-01 02:40:00,7.8,-6.2,30.03,NE,48,0.0,1.1,52,0.00,CLR,,0.00,WeatherDisplay:10.37,2015-02-01 07:40:00,
2015-02-01 02:45:00,7.3,-6.3,30.03,NE,49,0.0,0.0,53,0.00,CLR,,0.00,WeatherDisplay:10.37,2015-02-01 07:45:00,
2015-02-01 02:50:00,6.7,-6.5,30.03,ENE,62,0.0,1.0,54,0.00,CLR,,0.00,WeatherDisplay:10.37,2015-02-01 07:50:00,
2015-02-01 02:55:00,6.2,-6.5,30.03,ENE,63,0.0,0.0,55,0.00,CLR,,0.00,WeatherDisplay:10.37,2015-02-01 07:55:00,
2015-02-01 03:01:00,5.7,-6.3,30.03,ENE,65,0.0,0.0,57,0.00,CLR,,0.00,WeatherDisplay:10.37,2015-02-01 08:01:00,
2015-02-01 03:06:00,5.1,-6.5,30.04,ENE,66,0.0,0.0,58,0.00,CLR,,0.00,WeatherDisplay:10.37,2015-02-01 08:06:00,
2015-02-01 03:11:00,4.9,-6.7,30.04,ESE,104,1.0,2.3,58,0.00,CLR,,0.00,WeatherDisplay:10.37,2015-02-01 08:11:00,
2015-02-01 03:16:00,4.9,-6.3,30.04,ESE,111,0.0,0.0,59,0.00,CLR,,0.00,WeatherDisplay:10.37,2015-02-01 08:16:00,
2015-02-01 03:21:00,4.7,-6.2,30.04,ESE,113,0.0,0.0,60,0.00,CLR,,0.00,WeatherDisplay:10.37,2015-02-01 08:21:00,
2015-02-01 03:26:00,4.7,-6.2,30.04,ESE,113,0.0,1.1,60,0.00,CLR,,0.00,WeatherDisplay:10.37,2015-02-01 08:26:00,
2015-02-01 03:31:00,4.7,-6.2,30.04,SW,225,0.0,0.0,60,0.00,CLR,,0.00,WeatherDisplay:10.37,2015-02-01 08:31:00,
2015-02-01 03:36:00,5.3,-4.9,30.05,WNW,295,0.8,6.0,62,0.00,CLR,,0.00,WeatherDisplay:10.37,2015-02-01 08:36:00,
2015-02-01 03:41:00,6.4,-3.9,30.05,NNW,337,0.0,0.0,62,0.00,CLR,,0.00,WeatherDisplay:10.37,2015-02-01 08:41:00,
2015-02-01 03:46:00,6.6,-4.4,30.06,NNW,337,0.0,0.0,60,0.00,CLR,,0.00,WeatherDisplay:10.37,2015-02-01 08:46:00,
2015-02-01 03:51:00,6.4,-4.5,30.06,NNW,337,0.0,0.0,60,0.00,CLR,,0.00,WeatherDisplay:10.37,2015-02-01 08:51:00,
2015-02-01 03:56:00,6.2,-4.4,30.05,NNW,336,1.0,3.5,61,0.00,CLR,,0.00,WeatherDisplay:10.37,2015-02-01 08:56:00,
2015-02-01 04:01:00,6.2,-4.4,30.06,North,0,0.6,2.3,61,0.00,CLR,,0.00,WeatherDisplay:10.37,2015-02-01 09:01:00,
2015-02-01 04:06:00,6.4,-3.9,30.06,NNW,341,0.7,2.3,62,0.00,CLR,,0.00,WeatherDisplay:10.37,2015-02-01 09:06:00,
2015-02-01 04:11:00,6.6,-3.7,30.06,NW,320,1.2,2.3,62,0.00,CLR,,0.00,WeatherDisplay:10.37,2015-02-01 09:11:00,
2015-02-01 04:16:00,6.7,-3.9,30.06,NW,313,0.6,3.0,61,0.00,CLR,,0.00,WeatherDisplay:10.37,2015-02-01 09:16:00,
2015-02-01 04:21:00,6.6,-4.0,30.06,WNW,295,0.0,0.0,61,0.00,CLR,,0.00,WeatherDisplay:10.37,2015-02-01 09:21:00,
2015-02-01 04:26:00,6.4,-3.9,30.07,NW,309,2.7,4.6,62,0.00,CLR,,0.00,WeatherDisplay:10.37,2015-02-01 09:26:00,
2015-02-01 04:31:00,7.1,-3.2,30.07,NNW,336,8.0,12.7,62,0.00,CLR,,0.00,WeatherDisplay:10.37,2015-02-01 09:31:00,
2015-02-01 04:36:00,8.1,-2.6,30.07,WNW,300,1.9,4.6,61,0.00,CLR,,0.00,WeatherDisplay:10.37,2015-02-01 09:36:00,
2015-02-01 04:41:00,8.3,-2.7,30.07,NNW,341,1.6,3.5,60,0.00,CLR,,0.00,WeatherDisplay:10.37,2015-02-01 09:41:00,
2015-02-01 04:46:00,8.1,-2.9,30.07,WNW,297,0.0,0.0,60,0.00,CLR,,0.00,WeatherDisplay:10.37,2015-02-01 09:46:00,
2015-02-01 04:51:00,8.0,-3.0,30.07,WNW,296,0.0,0.0,60,0.00,CLR,,0.00,WeatherDisplay:10.37,2015-02-01 09:51:00,
2015-02-01 04:56:00,7.4,-3.6,30.07,WNW,300,0.0,0.0,60,0.00,CLR,,0.00,WeatherDisplay:10.37,2015-02-01 09:56:00,
2015-02-01 05:01:00,7.1,-3.9,30.07,WNW,300,0.0,0.0,60,0.00,CLR,,0.00,WeatherDisplay:10.37,2015-02-01 10:01:00,
2015-02-01 05:06:00,6.7,-3.9,30.07,WNW,293,0.0,0.0,61,0.00,CLR,,0.00,WeatherDisplay:10.37,2015-02-01 10:06:00,
2015-02-01 05:11:00,6.2,-4.4,30.07,WNW,293,0.0,0.0,61,0.00,CLR,,0.00,WeatherDisplay:10.37,2015-02-01 10:11:00,
2015-02-01 05:16:00,5.8,-4.8,30.07,WNW,293,0.0,0.0,61,0.00,CLR,,0.00,WeatherDisplay:10.37,2015-02-01 10:16:00,
2015-02-01 05:21:00,5.5,-4.7,30.07,WNW,293,0.0,0.0,62,0.00,CLR,,0.00,WeatherDisplay:10.37,2015-02-01 10:21:00,
2015-02-01 05:26:00,4.9,-5.0,30.07,WNW,295,0.0,0.0,63,0.00,CLR,,0.00,WeatherDisplay:10.37,2015-02-01 10:26:00,
2015-02-01 05:31:00,4.4,-5.1,30.07,WNW,295,0.0,0.0,64,0.00,CLR,,0.00,WeatherDisplay:10.37,2015-02-01 10:31:00,
2015-02-01 05:36:00,3.8,-5.4,30.07,WNW,293,0.0,0.0,65,0.00,CLR,,0.00,WeatherDisplay:10.37,2015-02-01 10:36:00,
2015-02-01 05:41:00,3.4,-5.7,30.07,WNW,292,0.0,0.0,65,0.00,CLR,,0.00,WeatherDisplay:10.37,2015-02-01 10:41:00,
2015-02-01 05:46:00,2.9,-6.2,30.07,WNW,293,0.0,0.0,65,0.00,CLR,,0.00,WeatherDisplay:10.37,2015-02-01 10:46:00,
2015-02-01 05:51:00,2.5,-6.3,30.07,WNW,293,0.0,0.0,66,0.00,CLR,,0.00,WeatherDisplay:10.37,2015-02-01 10:51:00,
2015-02-01 05:56:00,2.1,-6.7,30.08,WNW,293,0.0,0.0,66,0.00,CLR,,0.00,WeatherDisplay:10.37,2015-02-01 10:56:00,
2015-02-01 06:01:00,1.7,-6.7,30.08,WNW,295,0.0,0.0,67,0.00,CLR,,0.00,WeatherDisplay:10.37,2015-02-01 11:01:00,
2015-02-01 06:06:00,1.4,-7.0,30.09,WNW,295,0.0,0.0,67,0.00,CLR,,0.00,WeatherDisplay:10.37,2015-02-01 11:06:00,
2015-02-01 06:11:00,1.2,-7.2,30.09,WNW,295,0.0,0.0,67,0.00,CLR,,0.00,WeatherDisplay:10.37,2015-02-01 11:11:00,
2015-02-01 06:16:00,0.8,-7.3,30.09,WNW,293,0.0,0.0,68,0.00,CLR,,0.00,WeatherDisplay:10.37,2015-02-01 11:16:00,
2015-02-01 06:21:00,0.6,-7.2,30.09,WNW,293,0.0,0.0,69,0.00,CLR,,0.00,WeatherDisplay:10.37,2015-02-01 11:21:00,
2015-02-01 06:26:00,0.4,-7.4,30.09,WNW,293,0.0,0.0,69,0.00,CLR,,0.00,WeatherDisplay:10.37,2015-02-01 11:26:00,
2015-02-01 06:31:00,0.2,-7.6,30.09,WNW,293,0.0,0.0,69,0.00,CLR,,0.00,WeatherDisplay:10.37,2015-02-01 11:31:00,
2015-02-01 06:36:00,0.0,-7.8,30.10,WNW,293,0.0,0.0,69,0.00,CLR,,0.00,WeatherDisplay:10.37,2015-02-01 11:36:00,
2015-02-01 06:41:00,-0.2,-7.7,30.10,WNW,293,0.0,0.0,70,0.00,CLR,,0.00,WeatherDisplay:10.37,2015-02-01 11:41:00,
2015-02-01 06:46:00,-0.3,-7.8,30.10,WNW,293,0.0,0.0,70,0.00,CLR,,0.00,WeatherDisplay:10.37,2015-02-01 11:46:00,
2015-02-01 06:51:00,-0.5,-8.0,30.10,West,262,0.2,1.1,70,0.00,CLR,,0.00,WeatherDisplay:10.37,2015-02-01 11:51:00,
2015-02-01 06:56:00,-0.5,-7.7,30.10,West,262,0.0,0.0,71,0.00,CLR,,0.00,WeatherDisplay:10.37,2015-02-01 11:56:00,
2015-02-01 07:01:00,-0.7,-7.9,30.10,West,262,0.0,0.0,71,0.00,CLR,,0.00,WeatherDisplay:10.37,2015-02-01 12:01:00,
2015-02-01 07:06:00,-0.7,-7.6,30.11,West,261,0.0,0.0,72,0.00,CLR,,0.00,WeatherDisplay:10.37,2015-02-01 12:06:00,
2015-02-01 07:11:00,-0.7,-7.6,30.11,West,261,0.0,0.0,72,0.00,CLR,,0.00,WeatherDisplay:10.37,2015-02-01 12:11:00,
2015-02-01 07:16:00,-0.7,-7.6,30.11,West,262,0.0,0.0,72,0.00,CLR,,0.00,WeatherDisplay:10.37,2015-02-01 12:16:00,
2015-02-01 07:21:00,-0.5,-7.1,30.11,SE,141,0.0,1.0,73,0.00,CLR,,0.00,WeatherDisplay:10.37,2015-02-01 12:21:00,
2015-02-01 07:26:00,-0.5,-7.1,30.11,WSW,238,0.1,1.1,73,0.00,CLR,,0.00,WeatherDisplay:10.37,2015-02-01 12:26:00,
2015-02-01 07:31:00,-0.5,-7.1,30.11,WSW,237,0.0,0.0,73,0.00,CLR,,0.00,WeatherDisplay:10.37,2015-02-01 12:31:00,
2015-02-01 07:36:00,-0.5,-7.1,30.12,SSE,158,0.0,0.0,73,0.00,CLR,,0.00,WeatherDisplay:10.37,2015-02-01 12:36:00,
2015-02-01 07:41:00,-0.5,-7.1,30.12,SSE,158,0.0,0.0,73,0.00,CLR,,0.00,WeatherDisplay:10.37,2015-02-01 12:41:00,
2015-02-01 07:46:00,-0.5,-6.8,30.12,SSE,159,0.0,0.0,74,0.00,CLR,,0.00,WeatherDisplay:10.37,2015-02-01 12:46:00,
2015-02-01 07:51:00,-0.5,-6.8,30.12,SSE,158,0.0,0.0,74,0.00,CLR,,0.00,WeatherDisplay:10.37,2015-02-01 12:51:00,
2015-02-01 07:56:00,-0.3,-6.6,30.12,SSE,158,0.0,0.0,74,0.00,CLR,,0.00,WeatherDisplay:10.37,2015-02-01 12:56:00,
2015-02-01 08:01:00,0.0,-6.3,30.12,SSE,158,0.0,0.0,74,0.00,CLR,,0.00,WeatherDisplay:10.37,2015-02-01 13:01:00,